Time,TemperatureF,DewpointF,PressureIn,WindDirection,WindDirectionDegrees,WindSpeedMPH,WindSpeedGustMPH,Humidity,HourlyPrecipIn,Conditions,Clouds,dailyrainin,SolarRadiationWatts/m^2,SoftwareType,DateUTC
2013-03-08 00:11:00,31.0,27.0,-100.00,SW,217,0.0,4.0,84,0.00,,,0.00,0.000000,,2013-03-08 08:11:00,
2013-03-08 00:21:00,31.0,27.0,-100.00,SW,217,0.0,4.0,84,0.00,,,0.00,0.000000,,2013-03-08 08:21:00,
2013-03-08 00:31:00,31.0,27.0,-100.00,SW,217,0.0,4.0,84,0.00,,,0.00,0.000000,,2013-03-08 08:31:00,
2013-03-08 00:41:00,31.0,27.0,-100.00,SW,217,0.0,4.0,84,0.00,,,0.00,0.000000,,2013-03-08 08:41:00,
2013-03-08 01:11:00,31.0,28.0,-100.00,WSW,251,0.0,4.0,87,0.00,,,0.00,0.000000,,2013-03-08 09:11:00,
2013-03-08 01:21:00,31.0,28.0,-100.00,WSW,251,0.0,4.0,87,0.00,,,0.00,0.000000,,2013-03-08 09:21:00,
2013-03-08 01:32:00,31.0,28.0,-100.00,WSW,251,0.0,4.0,87,0.00,,,0.00,0.000000,,2013-03-08 09:32:00,
2013-03-08 01:42:00,31.0,28.0,-100.00,WSW,251,0.0,4.0,87,0.00,,,0.00,0.000000,,2013-03-08 09:42:00,
2013-03-08 02:11:00,32.0,27.0,-100.00,SW,233,0.0,3.0,82,0.00,,,0.00,0.000000,,2013-03-08 10:11:00,
2013-03-08 02:21:00,32.0,27.0,-100.00,SW,233,0.0,3.0,82,0.00,,,0.00,0.000000,,2013-03-08 10:21:00,
2013-03-08 02:31:00,32.0,27.0,-100.00,SW,233,0.0,3.0,82,0.00,,,0.00,0.000000,,2013-03-08 10:31:00,
2013-03-08 02:41:00,32.0,27.0,-100.00,SW,233,0.0,3.0,82,0.00,,,0.00,0.000000,,2013-03-08 10:41:00,
2013-03-08 03:11:00,33.0,28.0,-100.00,SW,224,3.0,5.0,83,0.00,,,0.00,0.000000,,2013-03-08 11:11:00,
2013-03-08 03:21:00,33.0,28.0,-100.00,SW,224,3.0,5.0,83,0.00,,,0.00,0.000000,,2013-03-08 11:21:00,
2013-03-08 03:32:00,33.0,28.0,-100.00,SW,224,3.0,5.0,83,0.00,,,0.00,0.000000,,2013-03-08 11:32:00,
2013-03-08 03:41:00,33.0,28.0,-100.00,SW,224,3.0,5.0,83,0.00,,,0.00,0.000000,,2013-03-08 11:41:00,
2013-03-08 04:11:00,32.0,26.0,-100.00,West,264,0.0,4.0,78,0.00,,,0.00,0.000000,,2013-03-08 12:11:00,
2013-03-08 04:22:00,32.0,26.0,-100.00,West,264,0.0,4.0,78,0.00,,,0.00,0.000000,,2013-03-08 12:22:00,
2013-03-08 04:32:00,32.0,26.0,-100.00,West,264,0.0,4.0,78,0.00,,,0.00,0.000000,,2013-03-08 12:32:00,
2013-03-08 04:42:00,32.0,26.0,-100.00,West,264,0.0,4.0,78,0.00,,,0.00,0.000000,,2013-03-08 12:42:00,
2013-03-08 05:11:00,32.0,26.0,-100.00,WSW,258,0.0,4.0,79,0.00,,,0.00,0.000000,,2013-03-08 13:11:00,
2013-03-08 05:21:00,32.0,26.0,-100.00,WSW,258,0.0,4.0,79,0.00,,,0.00,0.000000,,2013-03-08 13:21:00,
2013-03-08 05:32:00,32.0,26.0,-100.00,WSW,258,0.0,4.0,79,0.00,,,0.00,0.000000,,2013-03-08 13:32:00,
2013-03-08 05:42:00,32.0,26.0,-100.00,WSW,258,0.0,4.0,79,0.00,,,0.00,0.000000,,2013-03-08 13:42:00,
2013-03-08 06:11:00,34.0,27.0,-100.00,NNE,14,0.0,4.0,74,0.00,,,0.00,0.000000,,2013-03-08 14:11:00,
2013-03-08 06:22:00,34.0,27.0,-100.00,NNE,14,0.0,4.0,74,0.00,,,0.00,0.000000,,2013-03-08 14:22:00,
2013-03-08 06:32:00,34.0,27.0,-100.00,NNE,14,0.0,4.0,74,0.00,,,0.00,0.000000,,2013-03-08 14:32:00,
2013-03-08 06:42:00,34.0,27.0,-100.00,NNE,14,0.0,4.0,74,0.00,,,0.00,0.000000,,2013-03-08 14:42:00,
2013-03-08 07:11:00,34.0,27.0,-100.00,WSW,237,0.0,0.0,74,0.00,,,0.00,3.000000,,2013-03-08 15:11:00,
2013-03-08 07:22:00,34.0,27.0,-100.00,WSW,237,0.0,0.0,74,0.00,,,0.00,3.000000,,2013-03-08 15:22:00,
2013-03-08 07:32:00,34.0,27.0,-100.00,WSW,237,0.0,0.0,74,0.00,,,0.00,3.000000,,2013-03-08 15:32:00,
2013-03-08 07:42:00,34.0,27.0,-100.00,WSW,237,0.0,0.0,74,0.00,,,0.00,3.000000,,2013-03-08 15:42:00,
2013-03-08 08:11:00,33.0,28.0,-100.00,NNE,26,3.0,5.0,82,0.00,,,0.00,72.000000,,2013-03-08 16:11:00,
2013-03-08 08:21:00,33.0,28.0,-100.00,NNE,26,3.0,5.0,82,0.00,,,0.00,72.000000,,2013-03-08 16:21:00,
2013-03-08 08:31:00,33.0,28.0,-100.00,NNE,26,3.0,5.0,82,0.00,,,0.00,72.000000,,2013-03-08 16:31:00,
2013-03-08 08:41:00,33.0,28.0,-100.00,NNE,26,3.0,5.0,82,0.00,,,0.00,72.000000,,2013-03-08 16:41:00,
2013-03-08 09:11:00,37.0,27.0,-100.00,North,3,2.0,6.0,68,0.00,,,0.00,195.000000,,2013-03-08 17:11:00,
2013-03-08 09:21:00,37.0,27.0,-100.00,North,3,2.0,6.0,68,0.00,,,0.00,195.000000,,2013-03-08 17:21:00,
2013-03-08 09:31:00,37.0,27.0,-100.00,North,3,2.0,6.0,68,0.00,,,0.00,195.000000,,2013-03-08 17:31:00,
2013-03-08 09:41:00,37.0,27.0,-100.00,North,3,2.0,6.0,68,0.00,,,0.00,195.000000,,2013-03-08 17:41:00,
2013-03-08 10:11:00,39.0,23.0,-100.00,NNW,347,8.0,13.0,53,0.00,,,0.00,394.000000,,2013-03-08 18:11:00,
2013-03-08 10:21:00,39.0,23.0,-100.00,NNW,347,8.0,13.0,53,0.00,,,0.00,394.000000,,2013-03-08 18:21:00,
2013-03-08 10:31:00,39.0,23.0,-100.00,NNW,347,8.0,13.0,53,0.00,,,0.00,394.000000,,2013-03-08 18:31:00,
2013-03-08 10:42:00,39.0,23.0,-100.00,NNW,347,8.0,13.0,53,0.00,,,0.00,394.000000,,2013-03-08 18:42:00,
2013-03-08 11:11:00,41.0,23.0,-100.00,NNE,26,6.0,12.0,48,0.00,,,0.00,442.000000,,2013-03-08 19:11:00,
2013-03-08 11:21:00,41.0,23.0,-100.00,NNE,26,6.0,12.0,48,0.00,,,0.00,442.000000,,2013-03-08 19:21:00,
2013-03-08 11:32:00,41.0,23.0,-100.00,NNE,26,6.0,12.0,48,0.00,,,0.00,442.000000,,2013-03-08 19:32:00,
2013-03-08 11:41:00,41.0,23.0,-100.00,NNE,26,6.0,12.0,48,0.00,,,0.00,442.000000,,2013-03-08 19:41:00,
2013-03-08 12:11:00,44.0,22.0,-100.00,NNW,329,5.0,10.0,42,0.00,,,0.00,500.000000,,2013-03-08 20:11:00,
2013-03-08 12:21:00,44.0,22.0,-100.00,NNW,329,5.0,10.0,42,0.00,,,0.00,500.000000,,2013-03-08 20:21:00,
2013-03-08 12:31:00,44.0,22.0,-100.00,NNW,329,5.0,10.0,42,0.00,,,0.00,500.000000,,2013-03-08 20:31:00,
2013-03-08 12:41:00,44.0,22.0,-100.00,NNW,329,5.0,10.0,42,0.00,,,0.00,500.000000,,2013-03-08 20:41:00,
2013-03-08 13:11:00,45.0,21.0,-100.00,NNE,30,4.0,13.0,38,0.00,,,0.00,674.000000,,2013-03-08 21:11:00,
2013-03-08 13:21:00,45.0,21.0,-100.00,NNE,30,4.0,13.0,38,0.00,,,0.00,674.000000,,2013-03-08 21:21:00,
2013-03-08 13:32:00,45.0,21.0,-100.00,NNE,30,4.0,13.0,38,0.00,,,0.00,674.000000,,2013-03-08 21:32:00,
2013-03-08 13:41:00,45.0,21.0,-100.00,NNE,30,4.0,13.0,38,0.00,,,0.00,674.000000,,2013-03-08 21:41:00,
2013-03-08 14:11:00,46.0,20.0,-100.00,North,2,5.0,13.0,35,0.00,,,0.00,688.000000,,2013-03-08 22:11:00,
2013-03-08 14:21:00,46.0,20.0,-100.00,North,2,5.0,13.0,35,0.00,,,0.00,688.000000,,2013-03-08 22:21:00,
2013-03-08 14:32:00,46.0,20.0,-100.00,North,2,5.0,13.0,35,0.00,,,0.00,688.000000,,2013-03-08 22:32:00,
2013-03-08 14:41:00,46.0,20.0,-100.00,North,2,5.0,13.0,35,0.00,,,0.00,688.000000,,2013-03-08 22:41:00,
2013-03-08 15:11:00,47.0,20.0,-100.00,NNW,340,7.0,14.0,34,0.00,,,0.00,471.000000,,2013-03-08 23:11:00,
2013-03-08 15:21:00,47.0,20.0,-100.00,NNW,340,7.0,14.0,34,0.00,,,0.00,471.000000,,2013-03-08 23:21:00,
2013-03-08 15:32:00,47.0,20.0,-100.00,NNW,340,7.0,14.0,34,0.00,,,0.00,471.000000,,2013-03-08 23:32:00,
2013-03-08 15:41:00,47.0,20.0,-100.00,NNW,340,7.0,14.0,34,0.00,,,0.00,471.000000,,2013-03-08 23:41:00,
2013-03-08 16:11:00,47.0,19.0,-100.00,NNE,13,4.0,11.0,33,0.00,,,0.00,287.000000,,2013-03-09 00:11:00,
2013-03-08 16:21:00,47.0,19.0,-100.00,NNE,13,4.0,11.0,33,0.00,,,0.00,287.000000,,2013-03-09 00:21:00,
2013-03-08 16:31:00,47.0,19.0,-100.00,NNE,13,4.0,11.0,33,0.00,,,0.00,287.000000,,2013-03-09 00:31:00,
2013-03-08 16:41:00,47.0,19.0,-100.00,NNE,13,4.0,11.0,33,0.00,,,0.00,287.000000,,2013-03-09 00:41:00,
2013-03-08 17:12:00,46.0,17.0,-100.00,NW,317,7.0,14.0,31,0.00,,,0.00,349.000000,,2013-03-09 01:12:00,
2013-03-08 17:21:00,46.0,17.0,-100.00,NW,317,7.0,14.0,31,0.00,,,0.00,349.000000,,2013-03-09 01:21:00,
2013-03-08 17:31:00,46.0,17.0,-100.00,NW,317,7.0,14.0,31,0.00,,,0.00,349.000000,,2013-03-09 01:31:00,
2013-03-08 17:41:00,46.0,17.0,-100.00,NW,317,7.0,14.0,31,0.00,,,0.00,349.000000,,2013-03-09 01:41:00,
2013-03-08 19:11:00,40.0,20.0,-100.00,NW,309,4.0,9.0,44,-99.99,,,0.00,1.000000,,2013-03-09 03:11:00,
2013-03-08 19:21:00,40.0,20.0,-100.00,NW,309,4.0,9.0,44,-99.99,,,0.00,1.000000,,2013-03-09 03:21:00,
2013-03-08 19:31:00,40.0,20.0,-100.00,NW,309,4.0,9.0,44,-99.99,,,0.00,1.000000,,2013-03-09 03:31:00,
2013-03-08 19:41:00,40.0,20.0,-100.00,NW,309,4.0,9.0,44,-99.99,,,0.00,1.000000,,2013-03-09 03:41:00,
2013-03-08 20:11:00,40.0,20.0,-100.00,WNW,299,5.0,10.0,45,0.00,,,0.00,0.000000,,2013-03-09 04:11:00,
2013-03-08 20:22:00,40.0,20.0,-100.00,WNW,299,5.0,10.0,45,0.00,,,0.00,0.000000,,2013-03-09 04:22:00,
2013-03-08 20:31:00,40.0,20.0,-100.00,WNW,299,5.0,10.0,45,0.00,,,0.00,0.000000,,2013-03-09 04:31:00,
2013-03-08 20:41:00,40.0,20.0,-100.00,WNW,299,5.0,10.0,45,0.00,,,0.00,0.000000,,2013-03-09 04:41:00,
2013-03-08 21:11:00,41.0,20.0,-100.00,NW,313,4.0,8.0,43,0.00,,,0.00,0.000000,,2013-03-09 05:11:00,
2013-03-08 21:21:00,41.0,20.0,-100.00,NW,313,4.0,8.0,43,0.00,,,0.00,0.000000,,2013-03-09 05:21:00,
2013-03-08 21:31:00,41.0,20.0,-100.00,NW,313,4.0,8.0,43,0.00,,,0.00,0.000000,,2013-03-09 05:31:00,
2013-03-08 21:42:00,41.0,20.0,-100.00,NW,313,4.0,8.0,43,0.00,,,0.00,0.000000,,2013-03-09 05:42:00,
2013-03-08 22:11:00,37.0,20.0,-100.00,North,10,0.0,10.0,49,0.00,,,0.00,0.000000,,2013-03-09 06:11:00,
2013-03-08 22:22:00,37.0,20.0,-100.00,North,10,0.0,10.0,49,0.00,,,0.00,0.000000,,2013-03-09 06:22:00,
2013-03-08 22:31:00,37.0,20.0,-100.00,North,10,0.0,10.0,49,0.00,,,0.00,0.000000,,2013-03-09 06:31:00,
2013-03-08 22:42:00,37.0,20.0,-100.00,North,10,0.0,10.0,49,0.00,,,0.00,0.000000,,2013-03-09 06:42:00,
2013-03-08 23:11:00,38.0,20.0,-100.00,SSW,194,0.0,6.0,48,0.00,,,0.00,0.000000,,2013-03-09 07:11:00,
2013-03-08 23:21:00,38.0,20.0,-100.00,SSW,194,0.0,6.0,48,0.00,,,0.00,0.000000,,2013-03-09 07:21:00,
2013-03-08 23:31:00,38.0,20.0,-100.00,SSW,194,0.0,6.0,48,0.00,,,0.00,0.000000,,2013-03-09 07:31:00,
2013-03-08 23:41:00,38.0,20.0,-100.00,SSW,194,0.0,6.0,48,0.00,,,0.00,0.000000,,2013-03-09 07:41:00,